Previsão horária em Juigalpa

Hoje, 21 Junho, Segunda-feira

Tempo Temperatura Precipitação Vento Pressão Humidade
00:00 +26°C° 0 mm 2 m/s 752 mmHg 93%
01:00 +26°C° 0 mm 3 m/s 752 mmHg 93%
02:00 +26°C° 0 mm 3 m/s 751 mmHg 93%
03:00 +26°C° 0 mm 3 m/s 751 mmHg 93%
04:00 +26°C° 0 mm 3 m/s 751 mmHg 91%
05:00 +27°C° 0 mm 3 m/s 752 mmHg 89%
06:00 +27°C° 0 mm 3 m/s 752 mmHg 87%
07:00 +28°C° 0.1 mm 4 m/s 752 mmHg 82%
08:00 +29°C° 0.1 mm 5 m/s 752 mmHg 76%
09:00 +32°C° 0.1 mm 6 m/s 753 mmHg 71%
10:00 +33°C° 0.1 mm 6 m/s 752 mmHg 67%
11:00 +34°C° 0.1 mm 6 m/s 752 mmHg 63%
12:00 +34°C° 0.1 mm 6 m/s 751 mmHg 59%
13:00 +34°C° 0.1 mm 5 m/s 751 mmHg 59%
14:00 +34°C° 0.1 mm 5 m/s 750 mmHg 59%
15:00 +34°C° 0.1 mm 5 m/s 750 mmHg 59%
16:00 +33°C° 0.5 mm 5 m/s 750 mmHg 66%
17:00 +30°C° 0.5 mm 4 m/s 750 mmHg 73%
18:00 +28°C° 0.5 mm 4 m/s 750 mmHg 80%
19:00 +28°C° 0.2 mm 4 m/s 751 mmHg 82%
20:00 +28°C° 0.2 mm 3 m/s 751 mmHg 83%
21:00 +27°C° 0.2 mm 3 m/s 752 mmHg 84%
22:00 +27°C° 0.1 mm 2 m/s 751 mmHg 87%
23:00 +27°C° 0.1 mm 2 m/s 751 mmHg 89%

Amanhã, 22 Junho, Terça-feira

Tempo Temperatura Precipitação Vento Pressão Humidade
00:00 +26°C° 0.1 mm 2 m/s 751 mmHg 91%
01:00 +26°C° 0.1 mm 2 m/s 751 mmHg 92%
02:00 +26°C° 0.1 mm 2 m/s 751 mmHg 92%
03:00 +26°C° 0.1 mm 2 m/s 751 mmHg 93%
04:00 +26°C° 0.3 mm 2 m/s 751 mmHg 92%
05:00 +26°C° 0.3 mm 2 m/s 751 mmHg 92%
06:00 +26°C° 0.3 mm 2 m/s 751 mmHg 92%
07:00 +28°C° 0.1 mm 3 m/s 751 mmHg 83%
08:00 +30°C° 0.1 mm 3 m/s 752 mmHg 74%
09:00 +32°C° 0.1 mm 4 m/s 752 mmHg 66%
10:00 +32°C° 0.2 mm 4 m/s 752 mmHg 67%
11:00 +32°C° 0.2 mm 5 m/s 752 mmHg 69%
12:00 +30°C° 0.2 mm 5 m/s 752 mmHg 71%
13:00 +30°C° 0.1 mm 5 m/s 751 mmHg 72%
14:00 +29°C° 0.1 mm 4 m/s 751 mmHg 73%
15:00 +28°C° 0.1 mm 3 m/s 750 mmHg 74%
16:00 +28°C° 0 mm 3 m/s 751 mmHg 76%
17:00 +28°C° 0 mm 2 m/s 751 mmHg 78%
18:00 +27°C° 0 mm 2 m/s 751 mmHg 80%
19:00 +27°C° 0 mm 2 m/s 752 mmHg 82%
20:00 +26°C° 0 mm 2 m/s 752 mmHg 85%
21:00 +26°C° 0 mm 2 m/s 752 mmHg 87%
22:00 +26°C° 0 mm 2 m/s 752 mmHg 88%
23:00 +26°C° 0 mm 1 m/s 752 mmHg 89%

Depois de amanhã, 23 Junho, Quarta-feira

Tempo Temperatura Precipitação Vento Pressão Humidade
00:00 +26°C° 0 mm 1 m/s 752 mmHg 89%
01:00 +26°C° 0 mm 1 m/s 752 mmHg 89%
02:00 +26°C° 0 mm 1 m/s 751 mmHg 89%
03:00 +26°C° 0 mm 1 m/s 751 mmHg 89%
04:00 +26°C° 0 mm 1 m/s 751 mmHg 88%
05:00 +26°C° 0 mm 1 m/s 752 mmHg 88%
06:00 +26°C° 0 mm 2 m/s 752 mmHg 88%
07:00 +27°C° 0.1 mm 2 m/s 752 mmHg 85%
08:00 +27°C° 0.1 mm 2 m/s 753 mmHg 83%
09:00 +28°C° 0.1 mm 2 m/s 753 mmHg 81%
10:00 +29°C° 0.9 mm 3 m/s 753 mmHg 78%
11:00 +30°C° 0.9 mm 4 m/s 753 mmHg 75%
12:00 +32°C° 0.9 mm 5 m/s 752 mmHg 71%
13:00 +30°C° 0.5 mm 5 m/s 752 mmHg 73%
14:00 +28°C° 0.5 mm 4 m/s 752 mmHg 74%
15:00 +27°C° 0.5 mm 4 m/s 752 mmHg 76%
16:00 +27°C° 0 mm 3 m/s 752 mmHg 77%
17:00 +26°C° 0 mm 3 m/s 752 mmHg 79%
18:00 +25°C° 0 mm 3 m/s 752 mmHg 81%
19:00 +25°C° 0 mm 2 m/s 752 mmHg 82%
20:00 +25°C° 0 mm 2 m/s 752 mmHg 83%
21:00 +25°C° 0 mm 2 m/s 752 mmHg 84%
22:00 +24°C° 0 mm 2 m/s 753 mmHg 84%
23:00 +24°C° 0 mm 2 m/s 753 mmHg 84%

24 Junho, Quinta-feira

Tempo Temperatura Precipitação Vento Pressão Humidade
00:00 +24°C° 0 mm 2 m/s 753 mmHg 84%
01:00 +24°C° 0 mm 2 m/s 752 mmHg 83%
02:00 +24°C° 0 mm 2 m/s 752 mmHg 82%
03:00 +25°C° 0 mm 2 m/s 752 mmHg 82%
04:00 +25°C° 0 mm 2 m/s 752 mmHg 83%
05:00 +25°C° 0 mm 2 m/s 752 mmHg 85%
06:00 +25°C° 0 mm 2 m/s 752 mmHg 87%
07:00 +27°C° 0 mm 3 m/s 752 mmHg 80%
08:00 +28°C° 0 mm 4 m/s 753 mmHg 74%
09:00 +30°C° 0 mm 5 m/s 753 mmHg 68%
10:00 +32°C° 0 mm 5 m/s 752 mmHg 64%
11:00 +33°C° 0 mm 5 m/s 752 mmHg 59%
12:00 +34°C° 0 mm 5 m/s 751 mmHg 55%
13:00 +34°C° 0 mm 5 m/s 751 mmHg 55%
14:00 +34°C° 0 mm 5 m/s 750 mmHg 54%
15:00 +34°C° 0 mm 5 m/s 750 mmHg 54%
16:00 +32°C° 0 mm 5 m/s 750 mmHg 61%
17:00 +30°C° 0 mm 5 m/s 750 mmHg 69%
18:00 +28°C° 0 mm 5 m/s 751 mmHg 76%
19:00 +28°C° 0 mm 4 m/s 751 mmHg 79%
20:00 +27°C° 0 mm 3 m/s 751 mmHg 82%
21:00 +26°C° 0 mm 3 m/s 752 mmHg 86%
22:00 +26°C° 0 mm 2 m/s 752 mmHg 88%
23:00 +25°C° 0 mm 2 m/s 752 mmHg 89%

25 Junho, Sexta-feira

Tempo Temperatura Precipitação Vento Pressão Humidade
00:00 +25°C° 0 mm 2 m/s 752 mmHg 91%
01:00 +25°C° 0 mm 2 m/s 751 mmHg 92%
02:00 +25°C° 0 mm 2 m/s 751 mmHg 93%
03:00 +24°C° 0 mm 2 m/s 751 mmHg 93%
04:00 +24°C° 0 mm 2 m/s 751 mmHg 93%
05:00 +25°C° 0 mm 2 m/s 751 mmHg 92%
06:00 +25°C° 0 mm 2 m/s 751 mmHg 92%
07:00 +26°C° 0 mm 3 m/s 751 mmHg 83%
08:00 +28°C° 0 mm 3 m/s 752 mmHg 74%
09:00 +30°C° 0 mm 4 m/s 752 mmHg 65%
10:00 +32°C° 0 mm 4 m/s 751 mmHg 62%
11:00 +33°C° 0 mm 4 m/s 751 mmHg 58%
12:00 +33°C° 0 mm 4 m/s 751 mmHg 55%
13:00 +33°C° 0 mm 5 m/s 750 mmHg 55%
14:00 +33°C° 0 mm 5 m/s 750 mmHg 55%
15:00 +33°C° 0 mm 5 m/s 749 mmHg 56%
16:00 +32°C° 0.1 mm 5 m/s 749 mmHg 61%
17:00 +30°C° 0.1 mm 4 m/s 750 mmHg 67%
18:00 +28°C° 0.1 mm 4 m/s 750 mmHg 73%
19:00 +28°C° 0.1 mm 3 m/s 750 mmHg 74%
20:00 +28°C° 0.1 mm 3 m/s 751 mmHg 76%
21:00 +27°C° 0.1 mm 2 m/s 751 mmHg 78%
22:00 +27°C° 0 mm 2 m/s 751 mmHg 79%
23:00 +27°C° 0 mm 2 m/s 751 mmHg 81%

26 Junho, Sábado

Tempo Temperatura Precipitação Vento Pressão Humidade
00:00 +26°C° 0 mm 2 m/s 751 mmHg 82%
01:00 +26°C° 0 mm 2 m/s 750 mmHg 83%
02:00 +26°C° 0 mm 2 m/s 750 mmHg 85%
03:00 +26°C° 0 mm 1 m/s 750 mmHg 87%
04:00 +25°C° 0 mm 1 m/s 750 mmHg 87%
05:00 +25°C° 0 mm 1 m/s 750 mmHg 88%
06:00 +25°C° 0 mm 1 m/s 750 mmHg 88%
07:00 +27°C° 0 mm 1 m/s 750 mmHg 82%
08:00 +28°C° 0 mm 1 m/s 751 mmHg 76%
09:00 +29°C° 0 mm 1 m/s 751 mmHg 69%
10:00 +30°C° 0 mm 1 m/s 750 mmHg 65%
11:00 +31°C° 0 mm 1 m/s 750 mmHg 60%
12:00 +33°C° 0 mm 1 m/s 750 mmHg 56%
13:00 +32°C° 0.6 mm 2 m/s 749 mmHg 60%
14:00 +31°C° 0.6 mm 2 m/s 749 mmHg 64%
15:00 +30°C° 0.6 mm 2 m/s 749 mmHg 68%
16:00 +29°C° 0.6 mm 2 m/s 749 mmHg 73%
17:00 +28°C° 0.6 mm 2 m/s 749 mmHg 78%
18:00 +27°C° 0.6 mm 3 m/s 749 mmHg 83%
19:00 +27°C° 0.2 mm 2 m/s 750 mmHg 85%
20:00 +26°C° 0.2 mm 2 m/s 750 mmHg 87%
21:00 +26°C° 0.2 mm 2 m/s 750 mmHg 89%
22:00 +26°C° 0.2 mm 2 m/s 750 mmHg 89%
23:00 +25°C° 0.2 mm 2 m/s 750 mmHg 90%
Mostrar mais

Necessitamos do seu Consentimento

A Meteoprog e os seus Fornecedores de Serviços podem armazenar e aceder a dados pessoais como cookies, identificadores do dispositivo ou outras tecnologias semelhantes existentes no seu dispositivo e processar estes dados para personalizar conteúdos e anúncios, assim como funcionalidades nas redes sociais e análise de tráfego.

  • Armazenar e/ou aceder a informações no seu dispositivo

    Os cookies, identificadores do dispositivo ou outras informações podem ser armazenados ou acedidos no seu dispositivo, para os fins acima indicados.

  • Anúncios e conteúdos personalizados, medição de anúncios e conteúdos, dados sobre o público-alvo e desenvolvimento de produtos

    Os anúncios e os conteúdos podem ser personalizados com base num perfil. Podem ser adicionados dados adicionais para uma maior personalização dos anúncios e dos conteúdos. A eficácia dos anúncios e dos conteúdos pode ser medida. Podem ser obtidas informações sobre o público que visualizou os anúncios e os conteúdos. Estes dados podem ser usados para desenvolver ou melhorar sistemas, softwares ou a experiência do utilizador.

Ao clicar em "Eu concordo”, permitirá o uso de cookies, identificadores do dispositivo e web beacons mencionados ou outras tecnologias semelhantes. As configurações do navegador do seu dispositivo podem ser alteradas.

Para certos fins, podem ser invocados interesses legítimos ao invés de consentimento. Pode ler mais informação sobre este assunto na nossa Política de Privacidade e Cookies.